World > North America > United States > California

Pioneertown, California Regional Weather

Lat: 34.16N, Lon: 116.5W
Wx Zone: CAZ060Web Search
Pioneertown Weather Warning NWS WEATHER ALERT FOR THE PIONEERTOWN, CA AREA - EXCESSIVE HEAT WARNING Issued: 147 PM PDT Thu Aug 13 2020 Pioneertown Weather Warning  

Helpful Tip: Type the letters wx in the search engine next time you need to find us.

Feedback

Pioneertown, CA Regional Weather

Expires:202008140200;;412819
ASUS46 KLOX 140114
RWRCA 

SOUTHERN CALIFORNIA WEATHER ROUNDUP
NATIONAL WEATHER SERVICE OXNARD CALIFORNIA
600 PM PDT THU AUG 13 2020

NOTE: "FAIR" INDICATES FEW OR NO CLOUDS BELOW 12,000 FEET WITH NO 
SIGNIFICANT WEATHER AND/OR OBSTRUCTIONS TO VISIBILITY.

  -  STATIONS PRECEEDED BY AN ASTERISK (*) ARE NOT NWS OR FAA 
     STATIONS AND ARE NOT SUBJECT TO NWS AND FAA QUALITY CONTROL.


CAZ028-029-059-060-099-140200-
ANTELOPE VALLEY AND SURROUNDING AREAS

  
CITY           SKY/WX    TMP DP  RH WIND       PRES   REMARKS
LANCASTER      SUNNY     95  45  17 W24G30    29.94S HX  91           
PALMDALE       SUNNY     96  42  15 W22       29.95S HX  92           
*POPPY PARK      N/A     91  46  20 W23G37      N/A                   

CITY           SKY/WX    TMP DP  RH WIND       PRES   REMARKS
29 PALMS       PTSUNNY  104  43  12 NE3       29.92S HX  99           
BARSTOW/DAGGET MOSUNNY  105  46  13 W10       29.85F HX 101           
BISHOP         PTSUNNY   97  38  13 S12       30.01S HX  92           
CHINA LAKE     MOSUNNY  104  40  11 W14       29.88S HX  98           
EDWARDS AFB    MOSUNNY   98  47  17 W18       29.89F HX  94           
MOJAVE         SUNNY     93  48  21 NW23G31   29.97S HX  90           
NEEDLES        MOSUNNY  114  44   9 NE7       29.72S HX 109           
VICTORVILLE    SUNNY    N/A N/A N/A W7        29.95F                  

$$


SKY/WX - Weather  TMP - Temperature  DP - Dew Point  RH - Relative Humidity
WIND - Wind Direction/Speed PRES - Barometric Pressure VSB - Visibility
WCI - Wind Chill Index E13G22 Wind - East Wind 13 mph/Gusts of 22 mph
Pioneertown Weather Map
UTC Time: 8/14/2020, 01:33
Your Time: